Regional Weather Roundup
Issued by NWS Sterling, VA

Home | Current Version | Previous Version | Graphics & Text | Print | Product List | Glossary On
Versions: 1 2 3 4 5 6 7 8 9 10 11 12 13 14 15 16 17 18 19 20 21 22 23 24 25 26 27 28 29 30 31 32 33 34 35 36 37 38 39 40 41 42 43 44 45 46 47 48 49 50
636
ASUS41 KLWX 232111
RWRLWX

REGIONAL WEATHER ROUNDUP
NATIONAL WEATHER SERVICE BALTIMORE MD/WASHINGTON DC
500 PM EDT SAT JUL 23 2016

Note: "FAIR" indicates few or no clouds below 12,000 feet
with no significant weather and/or obstructions to visibility.
 TC=TEMPERATURE CELSIUS

 * =Non NWS site. Station does not report precipitation (e.g. rain,
    snow, etc.), thunder, or fog.

DCZ001-MDZ009-015-VAZ040>042-051-053>054-232200-
WASHINGTON METRO

CITY           SKY/WX    TMP DP  RH WIND       PRES   REMARKS
WASHINGTON NAT PTSUNNY   98  70  40 SW12      29.87F HX 105
DULLES         FAIR      98  67  36 W9        29.89F HX 102
FT BELVOIR     FAIR      97  69  39 W8        29.87F HX 103
QUANTICO       FAIR      98  68  37 NW8       29.89F HX 103
COLLEGE PARK*  FAIR      95  68  41 W7        29.86F HX  99
LEESBURG*      FAIR      97  73  46 NW9       29.90F HX 107
GAITHERSBURG*  SUNNY     93  72  49 W10       29.93F HX 100

$$

MDZ006>007-011-014-232200-
BALTIMORE METRO

CITY           SKY/WX    TMP DP  RH WIND       PRES   REMARKS
BWI AIRPORT    MOSUNNY   96  70  42 W12       29.85F HX 102
MD SCIENCE CTR   N/A     98  70  40 MISG      29.85F HX 105
MARTIN STATE   MOSUNNY   97  73  46 SW12G17   29.85  HX 107
ANNAPOLIS      MOSUNNY   93  77  59 S8        29.85F HX 107
FORT MEADE*    SUNNY     91  72  52 W10       29.89F HX  98

$$

MDZ012-015-019>023-232200-
MARYLAND EASTERN SHORE

CITY           SKY/WX    TMP DP  RH WIND       PRES   REMARKS
OCEAN CITY     MOSUNNY   93  77  59 SW10      29.87F HX 107
SALISBURY      SUNNY     92  73  53 SW9       29.88S HX 100
BAY BRIDGE AP* MOSUNNY   95  73  49 S10       29.85F HX 105
CAMBRIDGE*     SUNNY     91  72  52 S7        29.87F HX  98
EASTON*        SUNNY     95  79  59 SW7       29.90F HX 112

$$

MDZ017>025-232200-
SOUTHERN MARYLAND

CITY           SKY/WX    TMP DP  RH WIND       PRES   REMARKS
PATUXENT RIVER MOSUNNY   97  69  40 W14       29.87F HX 103
ST INIGOES     SUNNY     93  75  55 SE7       29.87F HX 104
LEONARDTOWN*   SUNNY     95  68  41 SW9G16    29.90F HX  99

$$

MDZ003>005-232200-
NORTH CENTRAL MARYLAND

CITY           SKY/WX    TMP DP  RH WIND       PRES   REMARKS
FREDERICK*     MOSUNNY   91  72  52 W10       29.92S HX  98
HAGERSTOWN APT CLOUDY    82  67  60 S15G25    29.91F THUNDER

$$

MDZ501>502-232200-
WESTERN MARYLAND

CITY           SKY/WX    TMP DP  RH WIND       PRES   REMARKS
OAKLAND*       MOSUNNY   81  66  61 W6        30.09F
CUMBERLAND*    MOSUNNY   93  66  40 NW7       29.96F HX  96

$$

VAZ025>031-232200-
SHENANDOAH VALLEY

CITY           SKY/WX    TMP DP  RH WIND       PRES   REMARKS
WINCHESTER*    PTSUNNY   97  66  36 SW3       29.91S HX 100
FRONT ROYAL*   FAIR      95  68  41 W3        29.91F HX  99
LURAY*         FAIR      95  64  36 SW8       29.94R HX  97
NEW MARKET*    FAIR     N/A N/A N/A S5        29.92S
STAUNTON*      FAIR      91  71  50 S8        29.98S HX  97
WAYNESBORO*    FAIR      91  69  48 SE6       29.99S HX  95

$$

WVZ021-048>050-054>055-232200-
EASTERN WEST VIRGINIA PANHANDLE

CITY           SKY/WX    TMP DP  RH WIND       PRES   REMARKS
MARTINSBURG    FAIR      96  67  38 NW13G18   29.90S HX 100
PETERSBURG*    FAIR      97  69  38 NW8       29.94S HX 103

$$

VAZ036>039-050-232200-
CENTRAL FOOTHILLS

CITY           SKY/WX    TMP DP  RH WIND       PRES   REMARKS
CHARLOTTESVILL FAIR      99  67  35 S13       29.92F HX 103
CULPEPER*      FAIR      95  73  48 SW6       29.91S HX 105
ORANGE*          N/A     95  70  43 S5        29.93F HX 101
GORDONSVILLE*  FAIR      96  73  48 S8        29.91F HX 105
WARRENTON*     FAIR      96  61  31 SW3       29.90S HX  96

$$

VAZ055>057-232200-
NORTH AND CENTRAL PIEDMONT

CITY           SKY/WX    TMP DP  RH WIND       PRES   REMARKS
FREDERICKSBRG*   N/A     96  71  43 S9        29.88F HX 103
STAFFORD*      FAIR      95  68  40 S6        29.93F HX 100

$$

NCZ024-NYZ072-PAZ021-071-VAZ022-071-232200-
OTHER REGIONAL OBSERVATIONS

CITY           SKY/WX    TMP DP  RH WIND       PRES   REMARKS
NEW YORK CITY  MOSUNNY   93  59  31 MISG      29.83F HX  92
PHILADELPHIA   PTSUNNY   95  70  44 SW18      29.81F THUNDER HX 101
PITTSBURGH     MOSUNNY   87  67  51 S7        29.96F HX  90
ROANOKE        FAIR      94  64  37 E6        30.00F HX  95
RICHMOND       FAIR      93  72  50 SW13      29.91F HX 101
RALEIGH        MOSUNNY   93  74  53 SW7       29.96S HX 103

$$

ANZ530>537-232200-
MARINE OBSERVATIONS

STATION/POSITION TIME  TEMP    WIND        PRES
                       AIR SEA DIR/SP/G
                 (UTC) (F)     (DEG/KT/KT) (MB)
THOMAS PT LIGHT  2100   87 83  180/ 13/ 14 1012.3F
BALT KEY BRIDGE  2042   93     260/ 12/ 14 1010.6F
COVE POINT       2042   87     170/ 10/ 12 1012.3F
LEWISETTA        2042   93 85  250/  7/ 10 1011.4F
SOLOMONS ISLAND  2042   93 85  240/ 11/ 19   N/A
PINEY POINT      2048          130/  5/  5   N/A

$$





USA.gov is the U.S. government's official web portal to all federal, state and local government web resources and services.